This is the latest recevied weather packets stored in our database for station/object LEMD. If no packets are shown the sender has not sent any weather packets the latest 10 day(s).
| Time | Temp. | Humidity | Pressure | Rain* | Wind** | Luminosity | Snow |
|---|---|---|---|---|---|---|---|
| 1777529705 | 11.11° C | 100% | 1015 hPa | - | - | - | - |
| 1777528805 | 11.11° C | 93% | 1015 hPa | - | - | - | - |
| 1777526104 | 11.11° C | 87% | 1015 hPa | - | - | - | - |
| 1777524304 | 12.78° C | 76% | 1015 hPa | - | - | - | - |
| 1777523404 | 12.78° C | 82% | 1015 hPa | - | - | - | - |
| 1777522505 | 12.78° C | 82% | 1015 hPa | - | - | - | - |
| 1777521604 | 13.89° C | 82% | 1015 hPa | - | - | - | - |
| 1777520704 | 13.89° C | 82% | 1015 hPa | - | - | - | - |
| 1777519804 | 13.89° C | 76% | 1015 hPa | - | - | - | - |
| 1777518904 | 13.89° C | 76% | 1015 hPa | - | - | - | - |
| 1777517104 | 15° C | 72% | 1014 hPa | - | - | - | - |
| 1777516205 | 15° C | 67% | 1014 hPa | - | - | - | - |
| 1777515304 | 15° C | 67% | 1014 hPa | - | - | - | - |
| 1777513504 | 16.11° C | 63% | 1014 hPa | - | - | - | - |
| 1777512605 | 15° C | 67% | 1014 hPa | - | - | - | - |
| 1777510805 | 16.11° C | 67% | 1014 hPa | - | - | - | - |
| 1777508104 | 16.11° C | 67% | 1013 hPa | - | - | - | - |
| 1777507205 | 16.11° C | 72% | 1013 hPa | - | - | - | - |
| 1777503604 | 17.22° C | 67% | 1013 hPa | - | - | - | - |
| 1777502704 | 17.22° C | 67% | 1013 hPa | - | - | - | - |
| 1777498204 | 17.22° C | 63% | 1012 hPa | - | - | - | - |
| 1777493705 | 18.89° C | 55% | 1010 hPa | - | - | - | - |
| 1777492804 | 20° C | 52% | 1009 hPa | - | - | - | - |
| 1777491904 | 20° C | 52% | 1009 hPa | - | - | - | - |
| 1777489204 | 21.11° C | 49% | 1008 hPa | - | - | - | - |
* Rain since midnight (hover to see other rain measurements)
** Current wind speed in m/s (hover to see current wind gust speed)